Year,Month,Day,Hour,Minute,Value (Times are PST for windspeed in km/hr)
2019,02,09,00,00,13.50
2019,02,09,00,01,20.10
2019,02,09,00,02,18.20
2019,02,09,00,03,15.20
2019,02,09,00,04,12.80
2019,02,09,00,05,19.50
2019,02,09,00,06,21.40
2019,02,09,00,07,20.00
2019,02,09,00,08,21.40
2019,02,09,00,09,24.80
2019,02,09,00,10,22.70
2019,02,09,00,11,26.50
2019,02,09,00,12,16.20
2019,02,09,00,13,7.10
2019,02,09,00,14,14.90
2019,02,09,00,15,16.70
2019,02,09,00,16,14.30
2019,02,09,00,17,23.70
2019,02,09,00,18,20.60
2019,02,09,00,19,13.80
2019,02,09,00,20,11.00
2019,02,09,00,21,10.10
2019,02,09,00,22,7.10
2019,02,09,00,23,13.20
2019,02,09,00,24,14.20
2019,02,09,00,25,9.70
2019,02,09,00,26,9.30
2019,02,09,00,27,14.70
2019,02,09,00,28,15.60
2019,02,09,00,29,9.70
2019,02,09,00,30,13.40
2019,02,09,00,31,10.50
2019,02,09,00,32,6.50
2019,02,09,00,33,10.30
2019,02,09,00,34,12.40
2019,02,09,00,35,5.90
2019,02,09,00,36,9.70
2019,02,09,00,37,11.00
2019,02,09,00,38,13.60
2019,02,09,00,39,16.30
2019,02,09,00,40,10.80
2019,02,09,00,41,12.30
2019,02,09,00,42,10.50
2019,02,09,00,43,9.90
2019,02,09,00,44,11.90
2019,02,09,00,45,16.10
2019,02,09,00,46,19.10
2019,02,09,00,47,16.30
2019,02,09,00,48,18.70
2019,02,09,00,49,21.20
2019,02,09,00,50,15.30
2019,02,09,00,51,14.60
2019,02,09,00,52,15.40
2019,02,09,00,53,19.00
2019,02,09,00,54,13.90
2019,02,09,00,55,11.00
2019,02,09,00,56,22.10
2019,02,09,00,57,17.40
2019,02,09,00,58,16.90
2019,02,09,00,59,21.30
2019,02,09,01,00,13.20
2019,02,09,01,01,15.20
2019,02,09,01,02,17.10
2019,02,09,01,03,20.80
2019,02,09,01,04,18.30
2019,02,09,01,05,14.60
2019,02,09,01,06,7.10
2019,02,09,01,07,12.70
2019,02,09,01,08,22.70
2019,02,09,01,09,20.20
2019,02,09,01,10,12.60
2019,02,09,01,11,7.70
2019,02,09,01,12,10.80
2019,02,09,01,13,9.70
2019,02,09,01,14,15.70
2019,02,09,01,15,13.60
2019,02,09,01,16,16.60
2019,02,09,01,17,15.60
2019,02,09,01,18,15.50
2019,02,09,01,19,13.70
2019,02,09,01,20,11.00
2019,02,09,01,21,14.80
2019,02,09,01,22,13.90
2019,02,09,01,23,11.80
2019,02,09,01,24,8.90
2019,02,09,01,25,12.80
2019,02,09,01,26,11.20
2019,02,09,01,27,12.60
2019,02,09,01,28,15.80
2019,02,09,01,29,17.10
2019,02,09,01,30,15.90
2019,02,09,01,31,13.90
2019,02,09,01,32,20.70
2019,02,09,01,33,20.70
2019,02,09,01,34,18.20
2019,02,09,01,35,13.00
2019,02,09,01,36,17.70
2019,02,09,01,37,10.50
2019,02,09,01,38,25.20
2019,02,09,01,39,21.50
2019,02,09,01,40,16.30
2019,02,09,01,41,19.80
2019,02,09,01,42,17.80
2019,02,09,01,43,11.40
2019,02,09,01,44,11.30
2019,02,09,01,45,11.20
2019,02,09,01,46,9.70
2019,02,09,01,47,8.90
2019,02,09,01,48,18.10
2019,02,09,01,49,23.20
2019,02,09,01,50,18.10
2019,02,09,01,51,21.60
2019,02,09,01,52,20.20
2019,02,09,01,53,18.00
2019,02,09,01,54,13.40
2019,02,09,01,55,16.00
2019,02,09,01,56,13.60
2019,02,09,01,57,15.40
2019,02,09,01,58,16.20
2019,02,09,01,59,10.40
2019,02,09,02,00,16.50
2019,02,09,02,01,13.80
2019,02,09,02,02,8.80
2019,02,09,02,03,12.60
2019,02,09,02,04,14.70
2019,02,09,02,05,18.20
2019,02,09,02,06,18.80
2019,02,09,02,07,13.00
2019,02,09,02,08,10.40
2019,02,09,02,09,16.80
2019,02,09,02,10,24.10
2019,02,09,02,11,24.30
2019,02,09,02,12,28.00
2019,02,09,02,13,24.20
2019,02,09,02,14,24.80
2019,02,09,02,15,27.20
2019,02,09,02,16,20.70
2019,02,09,02,17,22.90
2019,02,09,02,18,19.10
2019,02,09,02,19,18.10
2019,02,09,02,20,20.00
2019,02,09,02,21,12.60
2019,02,09,02,22,13.30
2019,02,09,02,23,12.30
2019,02,09,02,24,9.70
2019,02,09,02,25,8.10
2019,02,09,02,26,12.60
2019,02,09,02,27,12.40
2019,02,09,02,28,15.00
2019,02,09,02,29,16.10
2019,02,09,02,30,13.50
2019,02,09,02,31,14.80
2019,02,09,02,32,12.50
2019,02,09,02,33,15.60
2019,02,09,02,34,19.30
2019,02,09,02,35,17.30
2019,02,09,02,36,15.90
2019,02,09,02,37,21.60
2019,02,09,02,38,20.20
2019,02,09,02,39,17.90
2019,02,09,02,40,26.40
2019,02,09,02,41,17.90
2019,02,09,02,42,22.10
2019,02,09,02,43,23.70
2019,02,09,02,44,15.50
2019,02,09,02,45,15.40
2019,02,09,02,46,13.00
2019,02,09,02,47,14.90
2019,02,09,02,48,20.00
2019,02,09,02,49,22.90
2019,02,09,02,50,13.80
2019,02,09,02,51,11.30
2019,02,09,02,52,13.80
2019,02,09,02,53,14.90
2019,02,09,02,54,19.40
2019,02,09,02,55,18.40
2019,02,09,02,56,9.70
2019,02,09,02,57,10.50
2019,02,09,02,58,21.80
2019,02,09,02,59,25.60
2019,02,09,03,00,18.60
2019,02,09,03,01,19.10
2019,02,09,03,02,21.60
2019,02,09,03,03,11.50
2019,02,09,03,04,18.00
2019,02,09,03,05,22.70
2019,02,09,03,06,17.10
2019,02,09,03,07,18.70
2019,02,09,03,08,13.70
2019,02,09,03,09,24.80
2019,02,09,03,10,23.10
2019,02,09,03,11,26.10
2019,02,09,03,12,19.90
2019,02,09,03,13,19.70
2019,02,09,03,14,25.50
2019,02,09,03,15,25.70
2019,02,09,03,16,21.80
2019,02,09,03,17,19.00
2019,02,09,03,18,18.50
2019,02,09,03,19,16.30
2019,02,09,03,20,12.50
2019,02,09,03,21,23.80
2019,02,09,03,22,20.60
2019,02,09,03,23,9.80
2019,02,09,03,24,13.80
2019,02,09,03,25,20.20
2019,02,09,03,26,15.40
2019,02,09,03,27,13.40
2019,02,09,03,28,11.70
2019,02,09,03,29,13.80
2019,02,09,03,30,21.60
2019,02,09,03,31,24.50
2019,02,09,03,32,17.40
2019,02,09,03,33,12.50
2019,02,09,03,34,12.50
2019,02,09,03,35,17.40
2019,02,09,03,36,17.40
2019,02,09,03,37,20.50
2019,02,09,03,38,18.30
2019,02,09,03,39,18.30
2019,02,09,03,40,23.10
2019,02,09,03,41,21.40
2019,02,09,03,42,16.70
2019,02,09,03,43,25.30
2019,02,09,03,44,29.40
2019,02,09,03,45,27.00
2019,02,09,03,46,29.30
2019,02,09,03,47,21.20
2019,02,09,03,48,24.20
2019,02,09,03,49,19.70
2019,02,09,03,50,23.90
2019,02,09,03,51,21.60
2019,02,09,03,52,19.90
2019,02,09,03,53,17.50
2019,02,09,03,54,19.20
2019,02,09,03,55,21.00
2019,02,09,03,56,20.60
2019,02,09,03,57,24.70
2019,02,09,03,58,18.50
2019,02,09,03,59,17.70
2019,02,09,04,00,24.60
2019,02,09,04,01,22.60
2019,02,09,04,02,24.50
2019,02,09,04,03,24.30
2019,02,09,04,04,20.70
2019,02,09,04,05,18.10
2019,02,09,04,06,23.70
2019,02,09,04,07,10.90
2019,02,09,04,08,11.30
2019,02,09,04,09,19.50
2019,02,09,04,10,11.60
2019,02,09,04,11,12.50
2019,02,09,04,12,15.90
2019,02,09,04,13,18.40
2019,02,09,04,14,12.50
2019,02,09,04,15,18.40
2019,02,09,04,16,16.30
2019,02,09,04,17,13.70
2019,02,09,04,18,19.70
2019,02,09,04,19,23.70
2019,02,09,04,20,23.10
2019,02,09,04,21,19.80
2019,02,09,04,22,17.60
2019,02,09,04,23,13.00
2019,02,09,04,24,18.00
2019,02,09,04,25,23.70
2019,02,09,04,26,17.70
2019,02,09,04,27,21.00
2019,02,09,04,28,28.40
2019,02,09,04,29,31.10
2019,02,09,04,30,18.70
2019,02,09,04,31,24.20
2019,02,09,04,32,26.60
2019,02,09,04,33,27.40
2019,02,09,04,34,22.10
2019,02,09,04,35,14.00
2019,02,09,04,36,12.20
2019,02,09,04,37,10.40
2019,02,09,04,38,21.50
2019,02,09,04,39,31.40
2019,02,09,04,40,23.30
2019,02,09,04,41,15.40
2019,02,09,04,42,10.10
2019,02,09,04,43,22.10
2019,02,09,04,44,26.20
2019,02,09,04,45,18.00
2019,02,09,04,46,26.60
2019,02,09,04,47,27.30
2019,02,09,04,48,20.90
2019,02,09,04,49,28.60
2019,02,09,04,50,16.30
2019,02,09,04,51,19.30
2019,02,09,04,52,12.80
2019,02,09,04,53,17.90
2019,02,09,04,54,22.10
2019,02,09,04,55,28.80
2019,02,09,04,56,30.60
2019,02,09,04,57,30.60
2019,02,09,04,58,30.60
2019,02,09,04,59,30.60
2019,02,09,05,00,13.10
2019,02,09,05,01,17.80
2019,02,09,05,02,13.60
2019,02,09,05,03,15.40
2019,02,09,05,04,20.90
2019,02,09,05,05,16.40
2019,02,09,05,06,26.80
2019,02,09,05,07,18.70
2019,02,09,05,08,21.80
2019,02,09,05,09,16.30
2019,02,09,05,10,10.20
2019,02,09,05,11,9.60
2019,02,09,05,12,21.90
2019,02,09,05,13,19.00
2019,02,09,05,14,14.30
2019,02,09,05,15,27.60
2019,02,09,05,16,15.50
2019,02,09,05,17,15.10
2019,02,09,05,18,23.00
2019,02,09,05,19,21.60
2019,02,09,05,20,29.60
2019,02,09,05,21,21.20
2019,02,09,05,22,23.90
2019,02,09,05,23,26.10
2019,02,09,05,24,25.10
2019,02,09,05,25,20.80
2019,02,09,05,26,31.90
2019,02,09,05,27,25.80
2019,02,09,05,28,20.20
2019,02,09,05,29,23.60
2019,02,09,05,30,31.50
2019,02,09,05,31,21.00
2019,02,09,05,32,20.50
2019,02,09,05,33,22.90
2019,02,09,05,34,24.00
2019,02,09,05,35,25.40
2019,02,09,05,36,15.50
2019,02,09,05,37,12.70
2019,02,09,05,38,13.30
2019,02,09,05,39,13.60
2019,02,09,05,40,14.20
2019,02,09,05,41,17.10
2019,02,09,05,42,14.20
2019,02,09,05,43,25.70
2019,02,09,05,44,22.10
2019,02,09,05,45,20.50
2019,02,09,05,46,17.50
2019,02,09,05,47,22.40
2019,02,09,05,48,18.00
2019,02,09,05,49,13.80
2019,02,09,05,50,23.30
2019,02,09,05,51,24.10
2019,02,09,05,52,13.60
2019,02,09,05,53,16.10
2019,02,09,05,54,12.90
2019,02,09,05,55,10.50
2019,02,09,05,56,10.10
2019,02,09,05,57,8.60
2019,02,09,05,58,15.20
2019,02,09,05,59,22.20
2019,02,09,06,00,25.40
2019,02,09,06,01,24.60
2019,02,09,06,02,26.30
2019,02,09,06,03,19.60
2019,02,09,06,04,14.20
2019,02,09,06,05,21.10
2019,02,09,06,06,17.50
2019,02,09,06,07,17.80
2019,02,09,06,08,16.60
2019,02,09,06,09,17.20
2019,02,09,06,10,16.80
2019,02,09,06,11,17.60
2019,02,09,06,12,17.40
2019,02,09,06,13,15.50
2019,02,09,06,14,20.80
2019,02,09,06,15,13.60
2019,02,09,06,16,10.60
2019,02,09,06,17,14.10
2019,02,09,06,18,12.80
2019,02,09,06,19,12.80
2019,02,09,06,20,11.10
2019,02,09,06,21,13.90
2019,02,09,06,22,24.10
2019,02,09,06,23,21.20
2019,02,09,06,24,20.90
2019,02,09,06,25,13.80
2019,02,09,06,26,25.80
2019,02,09,06,27,17.50
2019,02,09,06,28,15.20
2019,02,09,06,29,20.20
2019,02,09,06,30,25.80
2019,02,09,06,31,15.40
2019,02,09,06,32,21.60
2019,02,09,06,33,22.00
2019,02,09,06,34,22.60
2019,02,09,06,35,18.00
2019,02,09,06,36,26.60
2019,02,09,06,37,20.90
2019,02,09,06,38,18.60
2019,02,09,06,39,32.30
2019,02,09,06,40,26.50
2019,02,09,06,41,23.40
2019,02,09,06,42,23.10
2019,02,09,06,43,20.00
2019,02,09,06,44,16.60
2019,02,09,06,45,27.20
2019,02,09,06,46,27.40
2019,02,09,06,47,28.10
2019,02,09,06,48,30.70
2019,02,09,06,49,28.30
2019,02,09,06,50,28.50
2019,02,09,06,51,22.30
2019,02,09,06,52,25.50
2019,02,09,06,53,22.00
2019,02,09,06,54,22.60
2019,02,09,06,55,27.00
2019,02,09,06,56,15.30
2019,02,09,06,57,18.30
2019,02,09,06,58,17.40
2019,02,09,06,59,23.10
2019,02,09,07,00,19.80
2019,02,09,07,01,18.60
2019,02,09,07,02,12.80
2019,02,09,07,03,16.80
2019,02,09,07,04,12.70
2019,02,09,07,05,15.30
2019,02,09,07,06,15.00
2019,02,09,07,07,7.00
2019,02,09,07,08,18.50
2019,02,09,07,09,19.70
2019,02,09,07,10,20.00
2019,02,09,07,11,21.80
2019,02,09,07,12,22.90
2019,02,09,07,13,18.20
2019,02,09,07,14,14.10
2019,02,09,07,15,12.20
2019,02,09,07,16,25.00
2019,02,09,07,17,24.10
2019,02,09,07,18,19.90
2019,02,09,07,19,17.40
2019,02,09,07,20,19.40
2019,02,09,07,21,12.30
2019,02,09,07,22,22.00
2019,02,09,07,23,28.60
2019,02,09,07,24,20.40
2019,02,09,07,25,19.20
2019,02,09,07,26,19.00
2019,02,09,07,27,14.30
2019,02,09,07,28,10.90
2019,02,09,07,29,14.00
2019,02,09,07,30,17.00
2019,02,09,07,31,20.60
2019,02,09,07,32,20.10
2019,02,09,07,33,18.60
2019,02,09,07,34,22.00
2019,02,09,07,35,21.00
2019,02,09,07,36,15.20
2019,02,09,07,37,12.70
2019,02,09,07,38,11.90
2019,02,09,07,39,21.60
2019,02,09,07,40,24.50
2019,02,09,07,41,30.30
2019,02,09,07,42,22.00
2019,02,09,07,43,17.30
2019,02,09,07,44,14.00
2019,02,09,07,45,22.80
2019,02,09,07,46,20.80
2019,02,09,07,47,20.70
2019,02,09,07,48,22.30
2019,02,09,07,49,20.80
2019,02,09,07,50,30.10
2019,02,09,07,51,21.20
2019,02,09,07,52,20.90
2019,02,09,07,53,25.40
2019,02,09,07,54,24.10
2019,02,09,07,55,21.30
2019,02,09,07,56,27.60
2019,02,09,07,57,16.70
2019,02,09,07,58,19.70
2019,02,09,07,59,27.80
2019,02,09,08,00,20.70
2019,02,09,08,01,19.70
2019,02,09,08,02,22.20
2019,02,09,08,03,25.00
2019,02,09,08,04,13.20
2019,02,09,08,05,16.10
2019,02,09,08,06,19.60
2019,02,09,08,07,15.40
2019,02,09,08,08,22.40
2019,02,09,08,09,24.70
2019,02,09,08,10,16.90
2019,02,09,08,11,15.50
2019,02,09,08,12,11.10
2019,02,09,08,13,13.10
2019,02,09,08,14,16.70
2019,02,09,08,15,13.80
2019,02,09,08,16,9.80
2019,02,09,08,17,14.20
2019,02,09,08,18,17.90
2019,02,09,08,19,13.00
2019,02,09,08,20,14.80
2019,02,09,08,21,9.50
2019,02,09,08,22,6.40
2019,02,09,08,23,14.60
2019,02,09,08,24,16.50
2019,02,09,08,25,12.70
2019,02,09,08,26,10.00
2019,02,09,08,27,7.70
2019,02,09,08,28,16.40
2019,02,09,08,29,11.10
2019,02,09,08,30,14.40
2019,02,09,08,31,15.10
2019,02,09,08,32,16.50
2019,02,09,08,33,21.50
2019,02,09,08,34,22.50
2019,02,09,08,35,23.50
2019,02,09,08,36,18.60
2019,02,09,08,37,17.20
2019,02,09,08,38,18.10
2019,02,09,08,39,10.00
2019,02,09,08,40,11.80
2019,02,09,08,41,22.90
2019,02,09,08,42,15.30
2019,02,09,08,43,15.30
2019,02,09,08,44,9.70
2019,02,09,08,45,13.00
2019,02,09,08,46,12.20
2019,02,09,08,47,12.60
2019,02,09,08,48,8.70
2019,02,09,08,49,7.90
2019,02,09,08,50,10.20
2019,02,09,08,51,6.60
2019,02,09,08,52,3.60
2019,02,09,08,53,3.30
2019,02,09,08,54,6.40
2019,02,09,08,55,3.20
2019,02,09,08,56,7.30
2019,02,09,08,57,25.90
2019,02,09,08,58,21.20
2019,02,09,08,59,14.90
2019,02,09,09,00,15.00
2019,02,09,09,01,13.30
2019,02,09,09,02,17.50
2019,02,09,09,03,20.70
2019,02,09,09,04,20.70
2019,02,09,09,05,26.90
2019,02,09,09,06,22.80
2019,02,09,09,07,23.50
2019,02,09,09,08,29.70
2019,02,09,09,09,21.40
2019,02,09,09,10,22.20
2019,02,09,09,11,23.60
2019,02,09,09,12,22.40
2019,02,09,09,13,15.70
2019,02,09,09,14,18.30
2019,02,09,09,15,30.90
2019,02,09,09,16,21.20
2019,02,09,09,17,21.40
2019,02,09,09,18,15.40
2019,02,09,09,19,23.50
2019,02,09,09,20,10.20
2019,02,09,09,21,14.60
2019,02,09,09,22,19.80
2019,02,09,09,23,27.80
2019,02,09,09,24,15.00
2019,02,09,09,25,16.20
2019,02,09,09,26,14.20
2019,02,09,09,27,19.50
2019,02,09,09,28,10.50
2019,02,09,09,29,6.20
2019,02,09,09,30,7.80
2019,02,09,09,31,8.40
2019,02,09,09,32,15.10
2019,02,09,09,33,22.40
2019,02,09,09,34,25.90
2019,02,09,09,35,11.60
2019,02,09,09,36,15.50
2019,02,09,09,37,21.70
2019,02,09,09,38,7.60
2019,02,09,09,39,24.80
2019,02,09,09,40,15.70
2019,02,09,09,41,16.10
2019,02,09,09,42,7.80
2019,02,09,09,43,18.80
2019,02,09,09,44,8.70
2019,02,09,09,45,12.60
2019,02,09,09,46,17.50
2019,02,09,09,47,29.70
2019,02,09,09,48,28.60
2019,02,09,09,49,34.80
2019,02,09,09,50,27.60
2019,02,09,09,51,40.60
2019,02,09,09,52,34.00
2019,02,09,09,53,26.70
2019,02,09,09,54,30.20
2019,02,09,09,55,21.60
2019,02,09,09,56,15.20
2019,02,09,09,57,10.90
2019,02,09,09,58,10.50
2019,02,09,09,59,26.20
2019,02,09,10,00,19.80
2019,02,09,10,01,18.80
2019,02,09,10,02,20.90
2019,02,09,10,03,25.10
2019,02,09,10,04,19.70
2019,02,09,10,05,35.60
2019,02,09,10,06,28.30
2019,02,09,10,07,28.20
2019,02,09,10,08,30.50
2019,02,09,10,09,18.90
2019,02,09,10,10,27.50
2019,02,09,10,11,23.70
2019,02,09,10,12,21.20
2019,02,09,10,13,26.60
2019,02,09,10,14,22.70
2019,02,09,10,15,31.10
2019,02,09,10,16,21.70
2019,02,09,10,17,16.70
2019,02,09,10,18,16.50
2019,02,09,10,19,11.90
2019,02,09,10,20,21.50
2019,02,09,10,21,22.20
2019,02,09,10,22,17.60
2019,02,09,10,23,37.60
2019,02,09,10,24,29.40
2019,02,09,10,25,29.60
2019,02,09,10,26,24.70
2019,02,09,10,27,20.00
2019,02,09,10,28,27.40
2019,02,09,10,29,21.50
2019,02,09,10,30,26.00
2019,02,09,10,31,24.10
2019,02,09,10,32,29.70
2019,02,09,10,33,33.40
2019,02,09,10,34,35.10
2019,02,09,10,35,27.00
2019,02,09,10,36,28.20
2019,02,09,10,37,31.10
2019,02,09,10,38,32.10
2019,02,09,10,39,24.40
2019,02,09,10,40,25.70
2019,02,09,10,41,23.30
2019,02,09,10,42,17.60
2019,02,09,10,43,21.70
2019,02,09,10,44,32.00
2019,02,09,10,45,27.00
2019,02,09,10,46,18.50
2019,02,09,10,47,22.40
2019,02,09,10,48,24.80
2019,02,09,10,49,24.90
2019,02,09,10,50,27.00
2019,02,09,10,51,24.50
2019,02,09,10,52,25.90
2019,02,09,10,53,29.60
2019,02,09,10,54,29.40
2019,02,09,10,55,15.20
2019,02,09,10,56,15.50
2019,02,09,10,57,22.00
2019,02,09,10,58,25.90
2019,02,09,10,59,26.30
2019,02,09,11,00,26.20
2019,02,09,11,01,22.50
2019,02,09,11,02,26.60
2019,02,09,11,03,18.90
2019,02,09,11,04,22.40
2019,02,09,11,05,20.40
2019,02,09,11,06,24.90
2019,02,09,11,07,28.50
2019,02,09,11,08,24.40
2019,02,09,11,09,14.20
2019,02,09,11,10,17.80
2019,02,09,11,11,11.80
2019,02,09,11,12,11.60
2019,02,09,11,13,17.40
2019,02,09,11,14,23.40
2019,02,09,11,15,27.30
2019,02,09,11,16,24.10
2019,02,09,11,17,23.70
2019,02,09,11,18,29.10
2019,02,09,11,19,23.00
2019,02,09,11,20,21.30
2019,02,09,11,21,20.80
2019,02,09,11,22,21.40
2019,02,09,11,23,18.80
2019,02,09,11,24,23.30
2019,02,09,11,25,23.30
2019,02,09,11,26,22.60
2019,02,09,11,27,16.80
2019,02,09,11,28,16.00
2019,02,09,11,29,22.90
2019,02,09,11,30,29.30
2019,02,09,11,31,28.40
2019,02,09,11,32,31.10
2019,02,09,11,33,21.60
2019,02,09,11,34,22.00
2019,02,09,11,35,25.80
2019,02,09,11,36,25.30
2019,02,09,11,37,34.80
2019,02,09,11,38,25.50
2019,02,09,11,39,23.90
2019,02,09,11,40,22.70
2019,02,09,11,41,17.50
2019,02,09,11,42,15.90
2019,02,09,11,43,15.60
2019,02,09,11,44,14.00
2019,02,09,11,45,10.40
2019,02,09,11,46,18.30
2019,02,09,11,47,22.50
2019,02,09,11,48,10.90
2019,02,09,11,49,9.10
2019,02,09,11,50,12.50
2019,02,09,11,51,7.10
2019,02,09,11,52,17.50
2019,02,09,11,53,24.40
2019,02,09,11,54,26.20
2019,02,09,11,55,14.10
2019,02,09,11,56,13.90
2019,02,09,11,57,16.20
2019,02,09,11,58,21.10
2019,02,09,11,59,17.50
2019,02,09,12,00,21.20
2019,02,09,12,01,22.40
2019,02,09,12,02,16.30
2019,02,09,12,03,11.10
2019,02,09,12,04,17.70
2019,02,09,12,05,7.70
2019,02,09,12,06,9.40
2019,02,09,12,07,13.00
2019,02,09,12,08,16.00
2019,02,09,12,09,21.20
2019,02,09,12,10,24.60
2019,02,09,12,11,18.20
2019,02,09,12,12,10.90
2019,02,09,12,13,29.00
2019,02,09,12,14,31.30
2019,02,09,12,15,18.70
2019,02,09,12,16,8.10
2019,02,09,12,17,13.40
2019,02,09,12,18,7.10
2019,02,09,12,19,14.30
2019,02,09,12,20,18.30
2019,02,09,12,21,13.20
2019,02,09,12,22,16.40
2019,02,09,12,23,18.40
2019,02,09,12,24,18.70
2019,02,09,12,25,13.10
2019,02,09,12,26,17.80
2019,02,09,12,27,19.30
2019,02,09,12,28,8.80
2019,02,09,12,29,14.80
2019,02,09,12,30,8.60
2019,02,09,12,31,7.70
2019,02,09,12,32,10.90
2019,02,09,12,33,15.80
2019,02,09,12,34,12.60
2019,02,09,12,35,7.50
2019,02,09,12,36,13.80
2019,02,09,12,37,16.60
2019,02,09,12,38,14.20
2019,02,09,12,39,21.30
2019,02,09,12,40,14.80
2019,02,09,12,41,19.70
2019,02,09,12,42,16.00
2019,02,09,12,43,12.00
2019,02,09,12,44,16.80
2019,02,09,12,45,16.80
2019,02,09,12,46,17.90
2019,02,09,12,47,16.50
2019,02,09,12,48,14.90
2019,02,09,12,49,18.10
2019,02,09,12,50,13.80
2019,02,09,12,51,8.50
2019,02,09,12,52,10.50
2019,02,09,12,53,15.80
2019,02,09,12,54,12.00
2019,02,09,12,55,7.50
2019,02,09,12,56,7.50
2019,02,09,12,57,6.20
2019,02,09,12,58,5.10
2019,02,09,12,59,3.90
2019,02,09,13,00,3.30
2019,02,09,13,01,10.10
2019,02,09,13,02,6.40
2019,02,09,13,03,5.80
2019,02,09,13,04,16.10
2019,02,09,13,05,13.40
2019,02,09,13,06,11.40
2019,02,09,13,07,17.30
2019,02,09,13,08,8.20
2019,02,09,13,09,6.70
2019,02,09,13,10,7.00
2019,02,09,13,11,12.60
2019,02,09,13,12,9.90
2019,02,09,13,13,12.10
2019,02,09,13,14,6.60
2019,02,09,13,15,8.10
2019,02,09,13,16,9.30
2019,02,09,13,17,11.30
2019,02,09,13,18,19.80
2019,02,09,13,19,12.90
2019,02,09,13,20,14.60
2019,02,09,13,21,15.50
2019,02,09,13,22,15.30
2019,02,09,13,23,20.00
2019,02,09,13,24,18.60
2019,02,09,13,25,22.40
2019,02,09,13,26,13.00
2019,02,09,13,27,18.70
2019,02,09,13,28,15.30
2019,02,09,13,29,17.70
2019,02,09,13,30,16.30
2019,02,09,13,31,21.80
2019,02,09,13,32,16.20
2019,02,09,13,33,20.50
2019,02,09,13,34,18.40
2019,02,09,13,35,16.40
2019,02,09,13,36,18.50
2019,02,09,13,37,17.10
2019,02,09,13,38,15.40
2019,02,09,13,39,20.40
2019,02,09,13,40,16.80
2019,02,09,13,41,19.20
2019,02,09,13,42,19.30
2019,02,09,13,43,12.30
2019,02,09,13,44,10.70
2019,02,09,13,45,19.90
2019,02,09,13,46,15.90
2019,02,09,13,47,13.00
2019,02,09,13,48,11.00
2019,02,09,13,49,16.40
2019,02,09,13,50,13.40
2019,02,09,13,51,17.60
2019,02,09,13,52,13.10
2019,02,09,13,53,13.90
2019,02,09,13,54,18.10
2019,02,09,13,55,13.70
2019,02,09,13,56,15.30
2019,02,09,13,57,10.50
2019,02,09,13,58,10.30
2019,02,09,13,59,6.40
2019,02,09,14,00,7.80
2019,02,09,14,01,15.10
2019,02,09,14,02,11.70
2019,02,09,14,03,14.30
2019,02,09,14,04,17.90
2019,02,09,14,05,16.90
2019,02,09,14,06,17.90
2019,02,09,14,07,16.10
2019,02,09,14,08,13.40
2019,02,09,14,09,15.10
2019,02,09,14,10,9.90
2019,02,09,14,11,12.00
2019,02,09,14,12,13.00
2019,02,09,14,13,18.20
2019,02,09,14,14,13.50
2019,02,09,14,15,10.20
2019,02,09,14,16,16.90
2019,02,09,14,17,14.90
2019,02,09,14,18,8.80
2019,02,09,14,19,8.50
2019,02,09,14,20,11.40
2019,02,09,14,21,14.90
2019,02,09,14,22,18.80
2019,02,09,14,23,14.50
2019,02,09,14,24,11.60
2019,02,09,14,25,5.50
2019,02,09,14,26,14.80
2019,02,09,14,27,12.10
2019,02,09,14,28,11.30
2019,02,09,14,29,9.70
2019,02,09,14,30,10.60
2019,02,09,14,31,5.80
2019,02,09,14,32,14.40
2019,02,09,14,33,18.10
2019,02,09,14,34,12.20
2019,02,09,14,35,14.10
2019,02,09,14,36,9.70
2019,02,09,14,37,12.70
2019,02,09,14,38,11.50
2019,02,09,14,39,13.00
2019,02,09,14,40,14.70
2019,02,09,14,41,7.60
2019,02,09,14,42,12.00
2019,02,09,14,43,9.90
2019,02,09,14,44,10.70
2019,02,09,14,45,7.50
2019,02,09,14,46,15.00
2019,02,09,14,47,12.70
2019,02,09,14,48,15.80
2019,02,09,14,49,9.70
2019,02,09,14,50,11.10
2019,02,09,14,51,9.70
2019,02,09,14,52,9.60
2019,02,09,14,53,7.60
2019,02,09,14,54,14.00
2019,02,09,14,55,15.40
2019,02,09,14,56,10.90
2019,02,09,14,57,15.40
2019,02,09,14,58,11.00
2019,02,09,14,59,17.00
2019,02,09,15,00,17.50
2019,02,09,15,01,18.50
2019,02,09,15,02,16.40
2019,02,09,15,03,16.50
2019,02,09,15,04,12.50
2019,02,09,15,05,9.40
2019,02,09,15,06,11.10
2019,02,09,15,07,16.70
2019,02,09,15,08,10.20
2019,02,09,15,09,12.20
2019,02,09,15,10,13.20
2019,02,09,15,11,20.90
2019,02,09,15,12,14.30
2019,02,09,15,13,18.10
2019,02,09,15,14,16.20
2019,02,09,15,15,9.30
2019,02,09,15,16,9.90
2019,02,09,15,17,12.70
2019,02,09,15,18,15.80
2019,02,09,15,19,17.50
2019,02,09,15,20,12.10
2019,02,09,15,21,11.70
2019,02,09,15,22,11.60
2019,02,09,15,23,17.20
2019,02,09,15,24,17.10
2019,02,09,15,25,14.40
2019,02,09,15,26,9.10
2019,02,09,15,27,16.20
2019,02,09,15,28,16.30
2019,02,09,15,29,16.00
2019,02,09,15,30,9.70
2019,02,09,15,31,12.20
2019,02,09,15,32,10.70
2019,02,09,15,33,10.40
2019,02,09,15,34,9.80
2019,02,09,15,35,8.30
2019,02,09,15,36,8.20
2019,02,09,15,37,11.30
2019,02,09,15,38,13.80
2019,02,09,15,39,12.40
2019,02,09,15,40,13.00
2019,02,09,15,41,9.20
2019,02,09,15,42,8.90
2019,02,09,15,43,11.40
2019,02,09,15,44,13.00
2019,02,09,15,45,9.00
2019,02,09,15,46,18.30
2019,02,09,15,47,12.30
2019,02,09,15,48,8.30
2019,02,09,15,49,7.70
2019,02,09,15,50,9.40
2019,02,09,15,51,8.90
2019,02,09,15,52,7.70
2019,02,09,15,53,7.70
2019,02,09,15,54,8.70
2019,02,09,15,55,9.70
2019,02,09,15,56,7.10
2019,02,09,15,57,10.70
2019,02,09,15,58,10.30
2019,02,09,15,59,9.70
2019,02,09,16,00,11.40
2019,02,09,16,01,11.60
2019,02,09,16,02,18.40
2019,02,09,16,03,12.30
2019,02,09,16,04,8.10
2019,02,09,16,05,12.10
2019,02,09,16,06,10.00
2019,02,09,16,07,9.00
2019,02,09,16,08,9.30
2019,02,09,16,09,5.10
2019,02,09,16,10,4.50
2019,02,09,16,11,5.40
2019,02,09,16,12,7.50
2019,02,09,16,13,12.30
2019,02,09,16,14,13.20
2019,02,09,16,15,9.10
2019,02,09,16,16,8.50
2019,02,09,16,17,10.40
2019,02,09,16,18,9.50
2019,02,09,16,19,6.10
2019,02,09,16,20,7.30
2019,02,09,16,21,4.90
2019,02,09,16,22,7.70
2019,02,09,16,23,8.90
2019,02,09,16,24,8.80
2019,02,09,16,25,10.80
2019,02,09,16,26,8.90
2019,02,09,16,27,12.20
2019,02,09,16,28,6.20
2019,02,09,16,29,5.60
2019,02,09,16,30,5.30
2019,02,09,16,31,3.90
2019,02,09,16,32,5.30
2019,02,09,16,33,4.70
2019,02,09,16,34,4.10
2019,02,09,16,35,2.60
2019,02,09,16,36,3.60
2019,02,09,16,37,3.00
2019,02,09,16,38,5.50
2019,02,09,16,39,3.80
2019,02,09,16,40,4.30
2019,02,09,16,41,3.30
2019,02,09,16,42,8.50
2019,02,09,16,43,7.50
2019,02,09,16,44,8.90
2019,02,09,16,45,7.60
2019,02,09,16,46,6.80
2019,02,09,16,47,6.40
2019,02,09,16,48,5.30
2019,02,09,16,49,6.70
2019,02,09,16,50,6.20
2019,02,09,16,51,6.90
2019,02,09,16,52,7.30
2019,02,09,16,53,5.00
2019,02,09,16,54,4.90
2019,02,09,16,55,6.80
2019,02,09,16,56,9.40
2019,02,09,16,57,5.60
2019,02,09,16,58,8.30
2019,02,09,16,59,6.80
2019,02,09,17,00,9.90
2019,02,09,17,01,9.30
2019,02,09,17,02,7.80
2019,02,09,17,03,6.30
2019,02,09,17,04,4.60
2019,02,09,17,05,6.40
2019,02,09,17,06,7.80
2019,02,09,17,07,6.90
2019,02,09,17,08,4.80
2019,02,09,17,09,4.90
2019,02,09,17,10,5.90
2019,02,09,17,11,4.40
2019,02,09,17,12,4.80
2019,02,09,17,13,4.30
2019,02,09,17,14,3.60
2019,02,09,17,15,5.70
2019,02,09,17,16,5.70
2019,02,09,17,17,5.90
2019,02,09,17,18,5.80
2019,02,09,17,19,5.80
2019,02,09,17,20,5.10
2019,02,09,17,21,5.10
2019,02,09,17,22,4.40
2019,02,09,17,23,4.00
2019,02,09,17,24,2.50
2019,02,09,17,25,1.90
2019,02,09,17,26,1.00
2019,02,09,17,27,0.40